Starlink 2643

operational
NORAD ID: 48367 Int'l Des: 2021-038 Owner: SPXS Country: US Constellation: starlink
LEOCIRCULARSTARLINK_TYPE

关于 Starlink 2643

正在加载描述...

实时位置

正在加载3D地球...

即将过境

高度历史

Altitude vs Time

uPlot chart will show altitude changes over time

两行轨道根数

1 48367U 21038Q 25296.83266261 .00003717 00000-0 26828-3 0 9997
2 48367 53.0549 245.9906 0001444 84.1826 275.9327 15.06399733246534
Epoch: Oct 23, 2025 • Age: 21 hours

当前状态

高度 551.3 km
速度 7.59 km/s
星下点 46.56°N, 78.62°E
发射日期 May 4, 2021
运行时间 4.4 years
类型 internet

技术详情

分类 Payload
质量 260.00 kg
干质量 248.00 kg
总质量 260.00 kg
长度 0.20 m
直径 2.80 m
跨度 9.00 m
形状 Box + pan
制造商 SPXS
平台类型 Starlink
阶段状态 In Orbit
所有者/国家 SPXS/US

大型星座

Loading constellations...